Location: Lake Sonoma
(38.7200°N, 123.0564°W)
Time: 08:37:34
(UTC-07:00)

ISS - All Passes

Search period start: 26 May 2018 00:00
Search period end: 05 June 2018 00:00
Orbit: 402 x 407 km, 51.6° (Epoch: 26 May)

Date Brightness Start Highest point End Pass type
(mag) Time Alt. Az. Time Alt. Az. Time Alt. Az.
26 May - 01:32:50 10° NNW 01:35:25 21° NNE 01:38:00 10° ENE visible
26 May - 03:08:54 10° WNW 03:12:04 49° SW 03:15:14 10° SSE night (unlit)
26 May - 19:47:31 10° SW 19:50:47 79° NW 19:54:03 10° NE daylight
26 May - 21:25:42 10° WNW 21:27:43 15° NNW 21:29:43 10° NNE visible
27 May - 00:40:58 10° NNW 00:42:58 15° NNE 00:44:58 10° ENE visible
27 May - 02:16:38 10° NW 02:19:53 79° NE 02:23:09 10° SE visible
27 May - 18:55:26 10° SSW 18:58:36 49° SE 19:01:47 10° ENE daylight
27 May - 20:32:39 10° W 20:35:14 21° NNW 20:37:51 10° NNE daylight
27 May - 23:49:14 10° N 23:50:26 12° NNE 23:51:38 10° NE visible
28 May - 01:24:30 10° NW 01:27:37 40° NNE 01:30:43 10° ESE visible
28 May - 03:01:29 10° W 03:03:53 19° SW 03:06:17 10° S night (unlit)
28 May - 18:03:46 10° S 18:06:29 24° SE 18:09:12 10° ENE daylight
28 May - 19:39:50 10° W 19:42:51 33° NNW 19:45:52 10° NE daylight
28 May - 21:19:16 10° NNW 21:20:07 11° NNW 21:20:57 10° N visible
29 May - 00:32:29 10° NNW 00:35:15 24° NNE 00:38:00 10° E visible
29 May - 02:08:44 10° WNW 02:11:48 38° SW 02:14:50 10° SSE night (unlit)
29 May - 17:13:00 10° SSE 17:14:26 12° SE 17:15:52 10° ESE daylight
29 May - 18:47:17 10° WSW 18:50:32 62° NW 18:53:46 10° NE daylight
29 May - 20:25:46 10° NW 20:27:32 14° NNW 20:29:18 10° NNE daylight
29 May - 23:40:33 10° NNW 23:42:47 17° NNE 23:45:01 10° ENE visible
30 May - 01:16:20 10° NW 01:19:37 81° SW 01:22:51 10° SE visible
30 May - 17:55:01 10° SW 17:58:16 65° SE 18:01:31 10° ENE daylight
30 May - 19:32:36 10° WNW 19:35:01 19° NNW 19:37:25 10° NNE daylight
30 May - 22:48:43 10° N 22:50:14 13° NNE 22:51:45 10° NE visible
31 May - 00:24:08 10° NW 00:27:20 50° NE 00:30:30 10° ESE visible
31 May - 02:01:32 10° W 02:03:30 15° SW 02:05:27 10° SSW night (unlit)
31 May - 17:03:09 10° SSW 17:06:05 31° SE 17:09:01 10° ENE daylight
31 May - 18:39:39 10° W 18:42:33 28° NNW 18:45:27 10° NNE daylight
31 May - 20:19:41 10° NNW 20:19:53 10° N 20:20:05 10° N daylight
31 May - 21:57:17 10° N 21:57:37 10° N 21:57:58 10° NNE visible
31 May - 23:32:02 10° NNW 23:34:57 29° NNE 23:37:51 10° E visible
01 Jun - 01:08:30 10° WNW 01:11:24 29° SW 01:14:16 10° SSE visible
01 Jun - 16:11:54 10° S 16:13:58 16° SE 16:16:02 10° E daylight
01 Jun - 17:46:58 10° WSW 17:50:09 49° NW 17:53:21 10° NE daylight
01 Jun - 19:25:46 10° NW 19:27:15 12° NNW 19:28:45 10° N daylight
01 Jun - 22:40:02 10° NNW 22:42:28 19° NNE 22:44:54 10° ENE visible
02 Jun - 00:15:58 10° WNW 00:19:12 62° SW 00:22:25 10° SE visible
02 Jun - 16:54:34 10° SW 16:57:49 84° SE 17:01:06 10° NE daylight
02 Jun - 18:32:27 10° WNW 18:34:40 17° NNW 18:36:53 10° NNE daylight
02 Jun - 21:48:06 10° NNW 21:49:55 14° NNE 21:51:42 10° NE visible
02 Jun - 23:23:39 10° NW 23:26:55 64° NE 23:30:08 10° ESE visible
03 Jun - 01:01:43 10° WSW 01:02:59 12° SW 01:04:15 10° SSW night (unlit)
03 Jun - 16:02:29 10° SSW 16:05:35 39° SE 16:08:40 10° ENE daylight
03 Jun - 17:39:23 10° W 17:42:08 24° NNW 17:44:53 10° NNE daylight
03 Jun - 20:56:22 10° N 20:57:16 11° NNE 20:58:10 10° NNE daylight
03 Jun - 22:31:29 10° NW 22:34:31 34° NNE 22:37:32 10° E visible
04 Jun - 00:08:12 10° WNW 00:10:52 23° SW 00:13:31 10° S visible
04 Jun - 15:10:56 10° S 15:13:23 20° SE 15:15:52 10° E daylight
04 Jun - 16:46:34 10° WSW 16:49:40 39° NNW 16:52:47 10° NE daylight
04 Jun - 18:25:40 10° NW 18:26:52 11° NNW 18:28:03 10° N daylight
04 Jun - 21:39:24 10° NNW 21:42:02 22° NNE 21:44:39 10° E visible
04 Jun - 23:15:31 10° WNW 23:18:40 47° SW 23:21:48 10° SSE visible
